Orbital elements:
2012 JU11 Earth MOID = 0.0736 AU
Epoch 2012 Mar. 14.0 TT = JDT 2456000.5 MPC
M 313.56810 (2000.0) P Q
n 0.55173536 Peri. 175.01275 -0.24768974 +0.96553141
a 1.4722521 Node 80.62970 -0.89167285 -0.19489244
e 0.2606339 Incl. 4.65035 -0.37890543 -0.17252833
P 1.79 H 24.8 G 0.15 U 7
The 27 - 59 metre wide asteroid 2012 JU11 will make a close pass (28.4 lunar distances, 0.0730 AU), travelling at 3.76 km/second, to the Earth-Moon system on the 9th June, 2012 @ 09:10 UT ±04:31.